Meteo pe oră la Dziadowo

Astăzi, 3 Martie, Miercuri

Timp Temperatura Precipitaţii Vânt Presiune Umiditate
00:00 +3°C° 0 mm 1 m/s 771 mmHg 83%
01:00 +3°C° 0 mm 1 m/s 771 mmHg 85%
02:00 +2°C° 0 mm 1 m/s 770 mmHg 85%
03:00 +2°C° 0 mm 1 m/s 770 mmHg 84%
04:00 +2°C° 0 mm 1 m/s 769 mmHg 84%
05:00 +1°C° 0 mm 2 m/s 769 mmHg 84%
06:00 +1°C° 0 mm 2 m/s 769 mmHg 84%
07:00 +1°C° 0 mm 2 m/s 768 mmHg 83%
08:00 +3°C° 0 mm 2 m/s 768 mmHg 78%
09:00 +5°C° 0 mm 2 m/s 768 mmHg 73%
10:00 +7°C° 0 mm 2 m/s 768 mmHg 67%
11:00 +8°C° 0 mm 3 m/s 767 mmHg 65%
12:00 +9°C° 0 mm 3 m/s 767 mmHg 63%
13:00 +10°C° 0 mm 3 m/s 766 mmHg 60%
14:00 +10°C° 0 mm 3 m/s 765 mmHg 62%
15:00 +10°C° 0 mm 3 m/s 765 mmHg 64%
16:00 +10°C° 0 mm 3 m/s 764 mmHg 66%
17:00 +9°C° 0 mm 3 m/s 763 mmHg 72%
18:00 +8°C° 0 mm 3 m/s 763 mmHg 78%
19:00 +5°C° 0 mm 3 m/s 762 mmHg 83%
20:00 +5°C° 0 mm 3 m/s 762 mmHg 86%
21:00 +5°C° 0 mm 3 m/s 761 mmHg 88%
22:00 +5°C° 0 mm 4 m/s 761 mmHg 91%
23:00 +4°C° 0 mm 4 m/s 760 mmHg 92%

Mâine, 4 Martie, Joi

Timp Temperatura Precipitaţii Vânt Presiune Umiditate
00:00 +4°C° 0 mm 4 m/s 760 mmHg 92%
01:00 +3°C° 0 mm 5 m/s 760 mmHg 93%
02:00 +3°C° 0 mm 5 m/s 759 mmHg 93%
03:00 +2°C° 0 mm 6 m/s 759 mmHg 92%
04:00 +2°C° 0 mm 6 m/s 758 mmHg 92%
05:00 +1°C° 0 mm 6 m/s 758 mmHg 90%
06:00 +1°C° 0 mm 6 m/s 758 mmHg 89%
07:00 -1°C° 0 mm 6 m/s 758 mmHg 87%
08:00 -1°C° 0 mm 6 m/s 758 mmHg 86%
09:00 +1°C° 0 mm 6 m/s 758 mmHg 85%
10:00 +1°C° 0 mm 5 m/s 758 mmHg 84%
11:00 +1°C° 0 mm 5 m/s 758 mmHg 84%
12:00 +1°C° 0 mm 5 m/s 758 mmHg 83%
13:00 +3°C° 0 mm 4 m/s 759 mmHg 83%
14:00 +1°C° 0 mm 5 m/s 759 mmHg 86%
15:00 -1°C° 0 mm 6 m/s 759 mmHg 89%
16:00 -2°C° 0 mm 7 m/s 758 mmHg 91%
17:00 -2°C° 0 mm 6 m/s 759 mmHg 87%
18:00 -1°C° 0 mm 5 m/s 759 mmHg 83%
19:00 -2°C° 0 mm 5 m/s 760 mmHg 78%
20:00 -2°C° 0 mm 4 m/s 760 mmHg 77%
21:00 -2°C° 0 mm 4 m/s 760 mmHg 76%
22:00 -3°C° 0 mm 4 m/s 761 mmHg 75%
23:00 -2°C° 0 mm 3 m/s 761 mmHg 75%

Poimâine, 5 Martie, Vineri

Timp Temperatura Precipitaţii Vânt Presiune Umiditate
00:00 -2°C° 0 mm 3 m/s 761 mmHg 75%
01:00 -2°C° 0 mm 2 m/s 761 mmHg 74%
02:00 -1°C° 0 mm 2 m/s 762 mmHg 73%
03:00 -1°C° 0 mm 2 m/s 762 mmHg 73%
04:00 -1°C° 0 mm 3 m/s 762 mmHg 72%
05:00 -1°C° 0 mm 3 m/s 762 mmHg 72%
06:00 -1°C° 0 mm 3 m/s 762 mmHg 72%
07:00 -1°C° 0 mm 3 m/s 763 mmHg 73%
08:00 -1°C° 0 mm 4 m/s 763 mmHg 67%
09:00 0°C° 0 mm 5 m/s 763 mmHg 61%
10:00 +1°C° 0 mm 5 m/s 763 mmHg 54%
11:00 +1°C° 0 mm 5 m/s 764 mmHg 53%
12:00 +1°C° 0 mm 6 m/s 764 mmHg 52%
13:00 +1°C° 0 mm 6 m/s 765 mmHg 50%
14:00 +1°C° 0 mm 6 m/s 765 mmHg 52%
15:00 -1°C° 0 mm 6 m/s 765 mmHg 53%
16:00 0°C° 0 mm 5 m/s 765 mmHg 55%
17:00 -1°C° 0 mm 4 m/s 766 mmHg 60%
18:00 -1°C° 0 mm 3 m/s 766 mmHg 64%
19:00 -2°C° 0 mm 2 m/s 767 mmHg 69%
20:00 -2°C° 0 mm 2 m/s 767 mmHg 68%
21:00 -2°C° 0 mm 2 m/s 768 mmHg 67%
22:00 -2°C° 0 mm 2 m/s 768 mmHg 66%
23:00 -2°C° 0 mm 2 m/s 769 mmHg 66%

6 Martie, Sâmbătă

Timp Temperatura Precipitaţii Vânt Presiune Umiditate
00:00 -2°C° 0 mm 2 m/s 769 mmHg 66%
01:00 -2°C° 0 mm 2 m/s 769 mmHg 66%
02:00 -2°C° 0 mm 2 m/s 769 mmHg 65%
03:00 -2°C° 0 mm 2 m/s 769 mmHg 64%
04:00 -2°C° 0 mm 3 m/s 769 mmHg 62%
05:00 -2°C° 0 mm 3 m/s 770 mmHg 65%
06:00 -2°C° 0 mm 3 m/s 770 mmHg 68%
07:00 -2°C° 0 mm 3 m/s 770 mmHg 70%
08:00 -2°C° 0 mm 4 m/s 770 mmHg 64%
09:00 -1°C° 0 mm 5 m/s 770 mmHg 58%
10:00 0°C° 0 mm 5 m/s 770 mmHg 53%
11:00 +1°C° 0 mm 6 m/s 770 mmHg 48%
12:00 +1°C° 0 mm 6 m/s 770 mmHg 44%
13:00 +2°C° 0 mm 7 m/s 769 mmHg 40%
14:00 +2°C° 0 mm 7 m/s 769 mmHg 42%
15:00 +2°C° 0 mm 7 m/s 768 mmHg 43%
16:00 +2°C° 0 mm 7 m/s 768 mmHg 45%
17:00 0°C° 0 mm 7 m/s 768 mmHg 51%
18:00 -1°C° 0 mm 6 m/s 767 mmHg 57%
19:00 -2°C° 0 mm 6 m/s 767 mmHg 63%
20:00 -2°C° 0 mm 6 m/s 767 mmHg 66%
21:00 -1°C° 0 mm 7 m/s 766 mmHg 68%
22:00 -1°C° 0 mm 7 m/s 766 mmHg 71%
23:00 -1°C° 0 mm 8 m/s 766 mmHg 73%

7 Martie, Duminică

Timp Temperatura Precipitaţii Vânt Presiune Umiditate
00:00 -2°C° 0 mm 8 m/s 765 mmHg 76%
01:00 -2°C° 0 mm 8 m/s 765 mmHg 79%
02:00 -2°C° 0 mm 8 m/s 764 mmHg 79%
03:00 -2°C° 0 mm 8 m/s 764 mmHg 80%
04:00 -3°C° 0 mm 9 m/s 764 mmHg 81%
05:00 -3°C° 0 mm 9 m/s 763 mmHg 79%
06:00 -2°C° 0 mm 8 m/s 763 mmHg 77%
07:00 -2°C° 0 mm 8 m/s 763 mmHg 75%
08:00 -1°C° 0 mm 8 m/s 763 mmHg 75%
09:00 -1°C° 0 mm 8 m/s 763 mmHg 74%
10:00 -1°C° 0 mm 8 m/s 762 mmHg 74%
11:00 -1°C° 0 mm 8 m/s 762 mmHg 75%
12:00 -1°C° 0 mm 8 m/s 762 mmHg 76%
13:00 -1°C° 0 mm 8 m/s 762 mmHg 77%
14:00 -1°C° 0 mm 8 m/s 761 mmHg 77%
15:00 -1°C° 0 mm 7 m/s 761 mmHg 76%
16:00 -1°C° 0 mm 7 m/s 760 mmHg 76%
17:00 -1°C° 0 mm 7 m/s 760 mmHg 78%
18:00 -1°C° 0 mm 7 m/s 759 mmHg 81%
19:00 -1°C° 0 mm 7 m/s 759 mmHg 83%
20:00 -1°C° 0 mm 7 m/s 759 mmHg 83%
21:00 -1°C° 0 mm 7 m/s 759 mmHg 84%
22:00 -1°C° 0 mm 7 m/s 759 mmHg 84%
23:00 -1°C° 0.1 mm 7 m/s 759 mmHg 86%

8 Martie, Luni

Timp Temperatura Precipitaţii Vânt Presiune Umiditate
00:00 -2°C° 0.1 mm 7 m/s 758 mmHg 88%
01:00 -2°C° 0.1 mm 7 m/s 758 mmHg 91%
02:00 -2°C° 0.4 mm 6 m/s 758 mmHg 93%
03:00 -2°C° 0.4 mm 6 m/s 758 mmHg 95%
04:00 -1°C° 0.4 mm 5 m/s 758 mmHg 97%
05:00 -1°C° 0.1 mm 5 m/s 759 mmHg 93%
06:00 -2°C° 0.1 mm 4 m/s 759 mmHg 90%
07:00 -2°C° 0.1 mm 3 m/s 760 mmHg 87%
08:00 -1°C° 0 mm 4 m/s 761 mmHg 79%
09:00 0°C° 0 mm 5 m/s 761 mmHg 71%
10:00 +1°C° 0 mm 6 m/s 762 mmHg 63%
11:00 -1°C° 0 mm 6 m/s 762 mmHg 64%
12:00 -1°C° 0 mm 6 m/s 763 mmHg 66%
13:00 -1°C° 0 mm 7 m/s 763 mmHg 67%
14:00 -1°C° 0 mm 7 m/s 763 mmHg 66%
15:00 -2°C° 0 mm 7 m/s 764 mmHg 65%
16:00 -2°C° 0 mm 6 m/s 764 mmHg 64%
17:00 -3°C° 0 mm 6 m/s 764 mmHg 67%
18:00 -4°C° 0 mm 5 m/s 765 mmHg 70%
19:00 -5°C° 0 mm 5 m/s 765 mmHg 73%
20:00 -5°C° 0 mm 5 m/s 766 mmHg 73%
21:00 -5°C° 0 mm 5 m/s 766 mmHg 72%
22:00 -5°C° 0 mm 5 m/s 766 mmHg 72%
23:00 -6°C° 0 mm 5 m/s 766 mmHg 71%
Arată mai mult

Formular de consimțământ

Meteoprog și furnizorii noștri de servicii pot stoca și accesa date personale, precum cookies, identificatori de dispozitiv sau alte tehnologii similare pe dispozitivul dumneavoastră și procesa astfel de date pentru a personaliza conținutul și reclamele, dar și pentru a oferi caracteristici de social media și pentru a analiza traficul.

  • Stocarea și/sau accesarea informațiilor pe dispozitivul dumneavoastră

    Cookies, identificatori de dispozitiv sau alte informații pot fi stocate sau accesate pe dispozitiv în scopurile indicate mai sus.

  • Reclame și conținut personalizat, evaluarea reclamelor și a conținutului, informații despre audiențe și dezvoltarea produselor

    Reclamele și conținutul pot fi personalizate pe baza unui profil. Pot fi adăugate date suplimentare pentru a personaliza mai bine reclamele și conținutul. Performanța reclamelor și conținutului poate fi măsurată. Pot fi obținute informații despre utilizatorii care au văzut reclamele și conținutul. Aceste date pot fi utilizate pentru a dezvolta sau îmbunătăți experiența utilizatorilor, sistemele și software-ul.

Dând clic pe ‘Sunt de acord’, permiteți utilizarea cookie-urilor menționate, a identificatorilor de dispozitiv, balizelor web sau altor tehnologii similare. Setările pot fi modificate din browser-ul dispozitivului dumneavoastră.

În anumite scopuri, interesele legitime pot prima asupra consimțământului. Puteți citi mai multe informații în acest sens în Politica privind Confidențialitatea Datelor și Cookie.